Temperature
19 19 19 19 19 19 19 19 19 19 19 19 19 19 19 19 19 19 19 19 19 18 18 18 18 18 18 18 18 19 19 19 19 19 19 19 19 19 18 18 18 18 18
20 19 19 19 19 19 19 19 19 19 19 19 19 19 19 19 19 19 18 18 18 18 18 18 18 18 18 18 18 18 18 19 19 19 19 19 18 18 18 18 18 18 18
20 19 19 19 19 19 19 19 19 19 19 19 19 19 19 19 18 18 18 18 18 18 18 18 18 18 18 18 18 18 18 18 18 18 18 18 18 18 18 18 18 18 18
20 19 19 19 19 19 19 19 19 19 19 19 19 19 19 19 18 18 18 18 18 18 18 18 18 18 18 18 18 18 18 18 18 18 18 18 18 18 18 18 18 18 18
20 20 20 19 19 19 19 19 19 19 18 18 19 19 19 18 18 18 18 18 18 18 18 18 18 18 18 18 18 18 18 18 18 18 18 18 18 18 18 18 18 18 18
20 20 20 19 19 19 19 19 19 19 18 18 18 18 18 18 18 18 18 18 18 18 18 18 18 18 18 18 18 18 18 18 18 18 18 18 18 18 18 18 18 18 18
20 20 20 20 19 19 19 19 19 19 19 19 18 18 18 18 18 18 18 18 18 18 18 18 18 18 18 18 18 18 18 18 18 18 18 18 18 18 18 18 18 17 17
20 20 20 20 20 19 19 19 19 19 19 19 19 18 18 18 18 18 18 18 18 18 18 18 18 18 18 18 18 18 18 18 18 18 18 18 18 18 18 18 18 17 17
21 20 20 20 20 20 19 19 19 19 19 19 19 19 18 18 18 18 18 18 18 18 18 18 18 18 18 18 18 18 18 18 18 18 18 18 18 18 18 18 17 17 17
21 20 20 20 20 20 19 19 19 19 19 19 19 19 18 18 18 18 18 18 18 18 18 18 18 18 18 18 18 18 18 18 18 18 18 18 18 18 18 17 17 17 17
21 20 20 20 20 19 19 19 19 19 19 19 19 18 18 18 18 18 18 18 18 18 18 18 18 18 18 18 18 18 18 18 18 18 18 18 18 18 18 18 17 17 17
21 21 20 20 20 20 19 19 19 19 19 19 18 18 18 18 18 18 18 18 18 18 18 18 18 18 18 18 18 18 18 18 18 18 18 18 18 18 18 18 17 17 17
21 21 20 20 20 20 20 20 19 19 19 19 18 18 19 18 18 18 18 18 18 18 18 18 18 18 18 18 18 18 18 18 18 18 18 18 18 18 18 18 17 17 17
21 21 20 20 20 20 20 19 19 19 19 19 19 19 19 18 18 18 18 18 18 18 18 18 18 18 18 18 18 18 18 18 18 18 18 18 18 18 18 18 17 17 17
21 21 20 20 20 20 20 19 19 19 19 19 19 19 19 18 18 18 18 18 18 18 18 18 18 18 18 18 18 18 18 18 18 18 18 18 18 18 18 18 18 18 17
21 20 20 20 20 19 19 19 19 19 19 19 19 19 19 18 18 18 18 18 18 18 18 18 18 18 18 18 18 18 18 18 18 18 18 18 18 18 18 18 18 17 17
21 20 20 20 20 19 19 19 19 19 19 19 19 19 19 18 18 18 18 18 18 18 18 18 18 18 18 18 18 18 18 18 18 18 18 18 18 18 18 18 18 17 17
21 20 20 20 20 20 19 19 19 19 19 19 19 19 19 18 18 18 18 18 18 18 18 18 18 18 18 18 18 18 18 18 18 18 18 18 17 17 17 17 17 17 17
21 20 20 20 20 20 19 19 19 19 19 19 19 19 19 18 18 18 18 18 18 18 18 18 18 18 18 18 18 18 18 18 18 18 18 17 17 17 17 17 17 17 17
21 20 20 20 20 20 19 19 19 19 19 19 19 19 19 19 18 19 18 19 18 18 18 18 18 18 18 18 18 18 18 18 18 18 18 18 17 17 17 17 17 17 17
21 20 20 20 20 20 20 20 19 19 19 19 19 19 19 18 18 19 19 18 18 18 18 18 18 18 18 18 18 18 18 18 18 18 18 18 17 17 17 17 17 17 17
21 21 20 20 20 20 20 20 20 19 19 19 19 19 19 19 19 19 19 18 18 18 18 18 18 18 18 18 18 18 18 18 18 18 18 18 18 17 17 17 17 17 17
21 21 21 20 20 20 20 20 20 20 19 19 19 19 19 19 19 19 19 18 18 18 18 18 18 18 18 18 18 18 18 18 18 18 18 18 18 17 17 17 17 17 16
22 21 21 20 20 20 20 20 20 20 19 19 19 19 19 19 18 19 18 18 18 18 18 18 18 18 18 18 18 18 18 18 18 18 18 18 18 17 17 17 17 17 16
22 22 21 21 20 20 20 20 20 20 19 19 19 19 19 19 18 19 18 18 18 18 18 18 18 18 18 18 18 18 18 18 18 18 17 17 17 17 17 17 17 17 16
23 22 21 21 20 20 20 20 20 20 19 19 19 19 19 19 18 18 18 18 18 18 18 18 18 18 18 18 18 18 18 18 18 18 18 18 17 17 17 17 17 17 16
Wind_Speed
11 12 13 13 13 13 12 12 13 14 14 14 14 13 14 15 15 15 16 17 17 18 17 17 16 16 16 15 15 15 15 15 16 15 15 14 14 13 12 12 13 13 15
13 13 14 13 13 12 12 13 14 14 14 14 14 14 15 15 15 16 16 16 16 17 16 16 15 15 15 15 14 14 15 14 14 14 14 13 13 12 11 11 12 13 14
13 14 14 13 12 12 13 14 15 15 15 15 15 15 15 15 16 16 16 16 16 16 15 15 14 14 14 14 14 14 13 12 12 13 13 11 11 11 12 13 13 14 13
13 14 13 12 12 12 13 14 15 15 15 15 15 15 16 16 16 15 15 15 15 14 14 14 14 14 13 13 13 12 11 10 9 10 8 9 11 12 12 12 12 12 12
14 14 13 13 13 12 13 14 15 15 15 15 15 15 16 16 15 15 15 14 14 13 13 13 13 12 12 12 11 10 9 8 7 6 6 10 11 12 12 11 12 12 11
14 15 14 13 13 12 12 13 14 15 15 15 15 14 14 14 14 14 14 13 12 12 12 12 12 12 11 10 9 8 7 6 4 4 8 10 11 12 12 11 11 11 10
13 14 14 14 14 13 13 13 13 13 14 14 13 13 13 13 13 13 13 12 12 11 11 12 12 11 11 9 7 6 4 3 3 5 9 10 11 12 11 11 10 10 10
13 14 14 14 14 13 13 13 13 13 13 13 12 12 12 12 12 12 12 12 11 11 11 12 12 11 10 9 7 5 3 1 2 7 9 11 13 13 12 11 10 10 10
13 13 12 13 13 13 12 12 12 12 12 12 11 11 11 11 11 11 11 11 10 10 11 11 11 10 10 8 6 5 4 2 1 5 8 9 13 13 12 11 10 9 9
10 11 10 11 12 13 12 12 11 11 12 11 10 10 11 11 11 11 11 10 10 10 10 9 9 9 9 8 6 5 4 3 3 5 7 10 13 12 11 10 9 9 9
9 8 8 9 10 11 11 12 11 11 11 10 10 10 10 9 9 9 10 10 10 10 9 8 8 9 8 8 8 7 5 4 3 5 8 12 13 12 11 10 10 9 9
9 8 6 7 7 7 8 9 8 8 9 7 7 9 7 6 8 9 11 11 10 9 8 7 8 8 8 7 8 8 5 5 4 6 9 14 12 12 10 10 10 9 9
9 8 7 7 6 5 5 5 4 5 7 6 6 6 5 5 6 7 7 8 8 9 7 7 8 7 6 4 4 5 4 3 3 6 10 14 13 12 11 10 10 9 9
8 8 7 7 6 5 4 3 3 3 3 4 5 5 4 2 2 3 3 5 6 6 5 5 4 3 3 4 3 2 3 3 3 5 10 13 13 12 11 10 10 9 9
8 8 7 7 6 4 3 1 3 3 3 4 4 4 4 3 2 2 2 2 3 4 5 3 3 2 2 2 3 2 2 3 3 5 8 12 12 13 12 11 10 9 9
8 7 7 7 6 4 2 1 1 2 2 3 3 4 3 3 2 2 2 1 2 3 3 3 3 3 2 1 1 2 2 2 2 5 7 9 11 12 11 11 10 10 9
8 7 6 7 6 4 2 1 2 2 2 2 3 4 3 4 3 2 2 2 2 3 3 3 2 2 2 2 2 2 1 2 2 3 6 7 8 11 11 10 10 10 9
8 6 5 6 7 4 2 1 1 2 3 3 3 4 4 4 4 2 2 2 3 3 2 2 2 1 1 1 2 1 1 2 2 3 5 6 7 6 9 10 10 10 9
8 6 5 5 5 4 4 2 1 2 2 2 3 3 4 3 3 3 2 2 3 2 2 2 2 2 1 1 2 2 2 2 2 2 3 5 6 6 6 7 8 8 8
9 7 6 5 4 4 3 2 2 2 1 2 3 3 3 3 2 2 3 2 2 2 1 1 1 1 1 1 1 1 1 2 2 2 2 3 5 7 7 6 7 7 8
10 8 6 6 4 3 2 2 2 2 1 2 3 4 3 2 2 1 2 2 1 2 1 1 1 1 2 1 1 1 0 1 1 1 2 2 3 4 6 7 7 6 6
10 9 8 7 6 4 3 2 2 2 2 3 3 3 3 3 2 2 2 1 2 2 2 1 1 0 1 1 1 1 0 1 1 2 2 2 1 2 4 6 6 7 6
11 10 8 7 6 4 4 3 2 2 1 3 3 3 2 3 2 2 2 2 2 2 2 2 1 1 1 1 1 1 1 1 0 0 1 2 2 1 1 3 5 6 6
12 11 8 8 6 5 4 3 3 3 2 3 2 3 3 3 3 2 2 2 1 2 2 2 2 1 1 2 1 1 1 2 2 1 1 1 3 3 2 1 2 3 5
13 12 10 8 7 5 4 3 2 2 2 2 3 4 3 3 3 3 3 2 1 1 1 1 1 0 1 1 1 1 1 1 2 2 2 2 1 2 2 2 1 3 5
12 12 11 10 8 7 6 5 4 3 2 3 3 4 3 3 3 3 4 3 2 1 1 1 1 1 1 1 2 1 1 1 1 1 1 2 2 2 2 1 2 2 4
Wind_Direction
86 89 84 78 74 73 71 78 85 87 87 89 90 95 96 98 100 104 105 109 113 116 118 119 121 121 121 119 113 111 111 108 109 110 111 111 111 112 113 117 116 110 112
95 95 89 81 79 75 76 85 91 91 89 88 89 93 95 99 103 105 106 108 111 114 117 119 120 121 122 120 118 116 115 115 116 118 119 116 116 117 117 112 108 112 117
101 99 94 86 82 79 82 91 94 93 90 88 89 94 96 99 102 103 104 107 109 111 114 116 118 121 122 123 123 122 122 124 131 133 132 126 121 118 114 111 114 119 120
102 98 96 94 89 85 85 93 96 95 93 91 91 95 98 102 104 105 106 106 107 109 112 116 117 120 124 127 128 130 131 135 143 150 144 132 126 123 121 121 124 124 123
100 101 104 103 98 94 90 92 94 95 95 93 94 98 100 103 105 106 106 108 109 112 114 118 120 122 125 130 135 137 139 141 150 156 117 110 117 129 129 129 132 130 129
111 110 111 109 105 101 98 97 98 97 97 96 97 100 102 105 107 108 109 111 113 115 119 123 125 125 127 133 136 139 144 156 175 166 131 116 120 136 138 136 135 135 134
110 113 117 116 113 110 107 104 103 102 102 103 103 103 104 106 107 109 110 111 112 114 120 127 128 128 128 131 138 146 159 186 207 149 121 118 126 136 138 144 144 138 138
115 118 120 122 120 117 115 115 112 110 111 111 110 109 109 110 110 111 112 113 112 114 121 127 129 130 131 135 145 160 179 205 167 122 116 121 132 137 137 137 144 146 148
115 122 132 131 128 124 121 119 117 120 121 121 121 121 120 119 118 116 114 117 118 120 124 129 133 136 138 147 158 172 183 193 192 137 129 128 141 143 143 146 146 152 155
104 115 129 132 132 133 128 128 127 131 132 133 136 137 136 134 131 129 123 125 126 127 131 137 145 149 151 157 170 188 200 222 194 147 130 136 145 148 151 154 156 160 158
102 106 118 127 132 132 134 137 143 144 148 148 151 156 157 150 144 143 131 135 135 136 142 149 157 163 168 176 188 201 213 209 167 135 129 142 152 155 160 166 166 168 168
112 107 106 106 114 122 121 136 149 146 149 158 152 159 172 153 144 137 144 147 146 149 153 162 170 173 186 191 197 204 209 188 160 137 138 150 157 161 167 172 174 174 175
112 108 104 97 92 91 108 132 137 133 141 143 141 143 142 141 143 144 149 156 163 167 173 172 189 197 191 188 188 190 196 172 145 139 150 156 162 168 175 177 181 182 187
113 109 98 92 82 72 82 109 131 127 129 128 144 157 147 147 137 142 154 163 171 174 169 172 182 184 179 186 187 187 185 177 165 142 159 165 168 176 182 183 186 189 195
115 109 102 96 84 72 56 64 114 111 125 132 141 134 137 139 133 142 132 165 168 158 169 162 159 161 171 190 192 178 172 179 176 155 161 175 177 183 187 188 192 196 199
120 117 116 116 110 105 92 41 77 107 126 128 131 129 132 138 150 152 148 163 160 163 141 142 161 160 171 175 174 171 164 158 180 162 165 179 188 189 189 194 200 202 202
128 124 130 131 124 124 129 161 131 138 131 121 126 124 136 145 153 158 153 169 149 145 145 161 172 166 170 175 167 168 162 187 190 169 172 177 184 192 193 198 204 207 208
134 132 146 135 129 130 124 87 54 72 80 96 130 141 145 145 172 171 166 154 158 166 165 168 166 142 144 157 150 177 183 199 203 193 180 175 176 180 189 196 202 205 209
137 142 139 116 129 142 144 143 92 67 71 107 132 139 139 157 179 173 148 138 170 156 161 175 125 135 167 159 169 186 196 200 202 199 170 170 167 164 173 183 189 196 205
142 144 142 134 131 135 129 135 103 87 103 116 113 120 134 152 157 148 146 157 157 138 142 120 130 162 190 208 196 194 203 181 172 158 164 160 160 167 168 168 179 192 200
149 152 150 147 143 149 144 147 139 146 144 110 114 117 130 123 114 110 99 133 144 131 133 134 142 194 200 172 179 244 267 144 140 181 151 163 152 155 154 161 170 178 187
157 158 157 156 159 169 152 159 160 154 152 115 97 109 114 103 111 129 114 157 127 142 146 139 105 289 256 170 175 147 95 349 283 205 168 163 152 158 155 167 172 170 177
164 167 168 163 161 174 166 173 151 127 125 109 117 131 123 124 117 75 117 105 113 139 142 173 164 206 244 266 244 168 155 191 244 174 201 151 156 172 161 166 160 157 160
171 169 160 158 162 168 170 183 172 163 159 147 145 141 152 148 138 122 111 103 99 110 129 200 168 236 235 264 258 255 202 159 173 200 297 170 177 177 183 196 143 149 156
174 170 165 158 162 168 177 180 185 169 167 153 150 145 161 156 148 138 129 129 124 118 142 195 114 233 278 289 283 274 276 223 222 191 212 211 208 189 178 189 165 155 163
174 169 165 160 165 170 177 177 181 191 179 157 155 158 173 164 160 161 150 149 142 152 155 143 184 147 68 346 305 303 297 262 237 210 210 202 197 204 191 199 191 170 170
Height
1502 1500 1499 1499 1498 1497 1497 1497 1497 1498 1498 1499 1499 1500 1500 1502 1504 1506 1508 1511 1513 1515 1518 1520 1523 1525 1527 1529 1531 1533 1535 1537 1538 1540 1542 1543 1545 1546 1548 1549 1550 1551 1553
1503 1502 1501 1500 1500 1499 1498 1498 1499 1500 1501 1501 1501 1501 1502 1504 1506 1508 1511 1514 1516 1518 1520 1522 1525 1527 1529 1531 1533 1535 1537 1538 1540 1542 1543 1545 1546 1548 1549 1550 1551 1552 1554
1504 1503 1503 1502 1502 1501 1500 1500 1501 1503 1503 1503 1503 1504 1505 1507 1508 1511 1514 1516 1518 1520 1522 1525 1527 1529 1531 1533 1535 1536 1538 1540 1541 1543 1545 1546 1548 1549 1550 1552 1553 1554 1555
1506 1505 1505 1505 1504 1504 1503 1504 1504 1506 1506 1506 1506 1507 1508 1510 1512 1514 1516 1518 1520 1522 1524 1526 1528 1530 1532 1534 1536 1538 1540 1541 1543 1544 1546 1548 1549 1551 1552 1553 1554 1555 1556
1507 1507 1507 1507 1507 1507 1507 1507 1508 1509 1509 1509 1509 1510 1512 1513 1515 1517 1519 1521 1522 1524 1526 1528 1530 1532 1534 1536 1538 1539 1541 1543 1544 1546 1548 1549 1550 1552 1553 1554 1555 1556 1557
1508 1508 1509 1509 1509 1509 1510 1510 1511 1512 1512 1513 1513 1514 1516 1517 1518 1520 1521 1523 1524 1525 1527 1529 1531 1533 1535 1537 1539 1541 1543 1544 1546 1548 1549 1550 1551 1552 1554 1554 1555 1556 1558
1510 1510 1511 1511 1512 1512 1512 1513 1514 1515 1515 1516 1517 1518 1519 1520 1521 1523 1524 1525 1525 1526 1527 1529 1531 1534 1536 1538 1540 1542 1544 1545 1547 1549 1550 1551 1552 1553 1554 1555 1556 1557 1558
1511 1512 1513 1513 1514 1515 1515 1516 1517 1517 1518 1519 1520 1521 1522 1523 1524 1525 1526 1526 1527 1527 1528 1530 1533 1535 1537 1540 1542 1543 1545 1546 1548 1550 1551 1552 1552 1554 1555 1555 1557 1558 1559
1514 1514 1515 1516 1516 1517 1518 1518 1519 1520 1521 1521 1522 1524 1525 1526 1527 1527 1528 1529 1530 1530 1531 1533 1535 1537 1539 1541 1543 1544 1546 1547 1549 1550 1551 1552 1553 1555 1555 1556 1558 1559 1560
1516 1517 1517 1518 1519 1519 1520 1521 1522 1522 1523 1524 1525 1526 1527 1528 1529 1530 1531 1531 1532 1533 1534 1536 1537 1539 1541 1542 1544 1546 1547 1548 1550 1551 1552 1553 1554 1555 1556 1557 1558 1559 1560
1518 1519 1520 1521 1521 1522 1522 1523 1524 1524 1525 1526 1527 1528 1529 1530 1531 1532 1533 1534 1534 1535 1536 1538 1539 1541 1542 1544 1545 1547 1548 1549 1550 1551 1552 1553 1554 1555 1556 1557 1558 1559 1560
1520 1521 1522 1523 1524 1524 1525 1525 1526 1527 1527 1528 1529 1530 1531 1532 1533 1534 1535 1535 1536 1537 1538 1539 1540 1542 1543 1545 1546 1547 1548 1549 1550 1550 1551 1552 1553 1554 1555 1556 1557 1558 1559
1521 1522 1523 1524 1525 1526 1526 1527 1528 1529 1529 1529 1530 1531 1532 1534 1535 1535 1536 1536 1537 1538 1539 1540 1541 1543 1544 1545 1546 1548 1549 1549 1550 1550 1551 1552 1553 1554 1555 1556 1557 1558 1559
1522 1523 1524 1525 1526 1526 1527 1528 1529 1530 1530 1531 1531 1532 1533 1534 1535 1536 1537 1538 1538 1539 1540 1542 1542 1544 1545 1546 1547 1548 1548 1549 1550 1550 1551 1552 1552 1553 1554 1555 1555 1556 1557
1523 1524 1525 1526 1526 1527 1528 1529 1530 1531 1531 1532 1532 1533 1534 1535 1536 1536 1537 1538 1539 1540 1541 1542 1543 1544 1544 1545 1547 1547 1548 1549 1549 1550 1550 1551 1551 1552 1553 1553 1554 1555 1556
1524 1525 1526 1526 1527 1528 1528 1529 1530 1531 1532 1532 1532 1532 1533 1534 1535 1536 1537 1539 1540 1541 1542 1542 1543 1544 1544 1545 1546 1547 1548 1548 1548 1549 1549 1549 1550 1551 1552 1552 1553 1554 1555
1524 1525 1526 1527 1528 1528 1529 1530 1531 1531 1531 1531 1531 1532 1533 1534 1535 1536 1537 1538 1539 1540 1542 1542 1543 1544 1544 1545 1546 1546 1547 1547 1547 1547 1547 1548 1549 1549 1550 1551 1552 1553 1553
1524 1525 1526 1528 1528 1529 1530 1531 1531 1531 1531 1530 1530 1531 1533 1534 1535 1536 1537 1538 1539 1540 1541 1542 1543 1544 1544 1545 1545 1546 1546 1546 1546 1546 1546 1546 1547 1548 1549 1550 1551 1552 1552
1523 1525 1526 1528 1528 1529 1530 1531 1531 1531 1531 1530 1531 1532 1533 1534 1535 1536 1537 1538 1539 1540 1541 1542 1542 1543 1544 1544 1545 1545 1545 1546 1546 1546 1546 1547 1547 1548 1548 1549 1550 1550 1551
1522 1524 1526 1527 1528 1529 1530 1531 1531 1532 1531 1532 1532 1532 1533 1535 1535 1536 1537 1538 1539 1540 1541 1541 1542 1543 1543 1544 1545 1545 1545 1546 1546 1546 1546 1547 1547 1547 1548 1548 1549 1549 1549
1522 1524 1525 1527 1528 1529 1530 1531 1531 1532 1532 1533 1533 1533 1534 1535 1536 1536 1537 1538 1539 1540 1540 1541 1542 1542 1543 1544 1544 1545 1545 1545 1545 1546 1546 1546 1547 1548 1548 1548 1548 1548 1548
1520 1522 1524 1526 1527 1528 1529 1531 1532 1532 1533 1533 1533 1534 1534 1535 1536 1537 1537 1538 1538 1539 1540 1540 1541 1542 1543 1543 1544 1544 1545 1546 1545 1546 1546 1546 1547 1547 1548 1548 1548 1548 1547
1519 1520 1523 1524 1526 1527 1529 1530 1532 1532 1533 1534 1534 1534 1534 1535 1536 1536 1537 1537 1538 1538 1539 1540 1540 1541 1542 1543 1543 1544 1544 1544 1545 1545 1545 1546 1546 1547 1547 1547 1547 1547 1547
1516 1519 1521 1523 1524 1526 1528 1529 1530 1531 1532 1533 1533 1534 1534 1535 1535 1536 1536 1537 1537 1538 1538 1539 1539 1540 1541 1541 1542 1543 1543 1543 1544 1544 1545 1545 1545 1546 1546 1546 1546 1546 1545
1515 1517 1519 1521 1523 1525 1526 1528 1529 1531 1532 1533 1533 1534 1534 1535 1535 1535 1536 1536 1536 1537 1538 1538 1539 1539 1540 1540 1540 1541 1541 1542 1542 1543 1543 1543 1544 1544 1544 1544 1544 1544 1543
1513 1515 1517 1519 1521 1523 1525 1526 1528 1530 1531 1532 1533 1533 1533 1534 1534 1535 1535 1535 1536 1536 1537 1537 1538 1538 1538 1539 1539 1540 1540 1540 1540 1541 1541 1541 1541 1542 1542 1542 1542 1542 1542